ATLAS 5 CENTAUR DEB, 43995

Orbit data source: Space-Track

ATLAS 5 CENTAUR DEB, 43995 is space debris in HEO originally from a launch on Wed, 17 Sep 2014 UTC launched from the Air Force Eastern Test Range (AFETR). Debris objects in space refer to the collection of defunct objects orbiting the Earth. Examples of debris include non-operational satellites, rocket bodies, and fragments generated from explosions, collisions, or faulty payload assembly.

Loading next visibility...
Identifier
43995, 2014-055BA
Orbit
HEO
Country
Flag of USUS
Related business
Flag of USUnited Launch Alliance/Lockheed Martin (US)
Manufacturer
Unknown
Mission
Spacecraft
Bus & Motor
Unknown
Mass
Unknown
Launch date (UTC)
2014-09-17 (12 years ago)
Launch vehicle
Unknown
Launch site
Air Force Eastern Test Range (AFETR)
Object type
Payload
Rocket body
Debris
Shape & HBR
Unknown shape, 1.1 m
Radar Cross Section
Small (<0.1 m²)

Expand to show TLE details & history
Last TLE update: 1 day ago

TLE from 1 day ago
0 ATLAS 5 CENTAUR DEB
1 43995U 14055BA  26119.12920273 -.00000009  00000-0  00000+0 0  9999
2 43995  20.4385 138.3867 4793636 178.6520 183.4138  1.88989548 52147
Epoch: 2026-04-29T03:06Z
TLE epoch observation values (Epoch: 2026-04-29T03:06:03.115Z)
Latitude
-0.00007°
Longitude
-125.18967°
Altitude
34,465.858 km
Speed
2.257 km/s
True Right ascension
09h 13m 40s
True Declination
0° 00' 00"
Sunlit
Object was in daylight at epoch
Visualization orbit readout
Latitude
Unknown
Longitude
Unknown
Altitude
Unknown
Speed
Unknown
Apparent Right ascension
Unknown
Apparent Declination
Unknown
Sunlit
N/A
Visualization observer readout
Local Sidereal Time
10:32:30
Azimuth
Unknown
Elevation
Unknown
Doppler factor
Unknown
Orbital elements
Apogee altitude
34,505.431 km
Perigee altitude
8,010.127 km
Semi-major axis
27,635.916 km
Eccentricity
0.47936
Inclination
20.4385°
RAAN
138.3867°
Arg. of periapsis
178.652°
True anomaly
181.36921°
Mean anomaly
183.4138°
Eccentric anomaly
182.30782°
Mean motion
0.47242 °/min
Orbital period
762.03 mins
BSTAR
0
Loading maneuver chart data...
Computing Atmospheric mass density...

Documentation

Showing up to 5 results
|